Year,Month,Day,Hour,Minute,Value (Times are PST for temperature in C)
2009,08,04,00,00,21.10
2009,08,04,00,01,21.10
2009,08,04,00,02,21.20
2009,08,04,00,03,21.20
2009,08,04,00,04,21.20
2009,08,04,00,05,21.10
2009,08,04,00,06,21.10
2009,08,04,00,07,21.10
2009,08,04,00,08,21.10
2009,08,04,00,09,21.10
2009,08,04,00,10,21.10
2009,08,04,00,11,21.20
2009,08,04,00,12,21.20
2009,08,04,00,13,21.20
2009,08,04,00,14,21.20
2009,08,04,00,15,21.20
2009,08,04,00,16,21.20
2009,08,04,00,17,21.20
2009,08,04,00,18,21.20
2009,08,04,00,19,21.20
2009,08,04,00,20,21.20
2009,08,04,00,21,21.20
2009,08,04,00,22,21.20
2009,08,04,00,23,21.20
2009,08,04,00,24,21.10
2009,08,04,00,25,21.10
2009,08,04,00,26,21.10
2009,08,04,00,27,21.10
2009,08,04,00,28,21.10
2009,08,04,00,29,21.10
2009,08,04,00,30,21.00
2009,08,04,00,31,21.00
2009,08,04,00,32,20.90
2009,08,04,00,33,20.90
2009,08,04,00,34,20.90
2009,08,04,00,35,20.80
2009,08,04,00,36,20.80
2009,08,04,00,37,20.80
2009,08,04,00,38,20.80
2009,08,04,00,39,20.70
2009,08,04,00,40,20.70
2009,08,04,00,41,20.70
2009,08,04,00,42,20.70
2009,08,04,00,43,20.70
2009,08,04,00,44,20.70
2009,08,04,00,45,20.70
2009,08,04,00,46,20.70
2009,08,04,00,47,20.60
2009,08,04,00,48,20.60
2009,08,04,00,49,20.50
2009,08,04,00,50,20.50
2009,08,04,00,51,20.40
2009,08,04,00,52,20.40
2009,08,04,00,53,20.40
2009,08,04,00,54,20.40
2009,08,04,00,55,20.30
2009,08,04,00,56,20.30
2009,08,04,00,57,20.20
2009,08,04,00,58,20.20
2009,08,04,00,59,20.10
2009,08,04,01,00,20.10
2009,08,04,01,01,20.00
2009,08,04,01,02,19.90
2009,08,04,01,03,19.80
2009,08,04,01,04,19.70
2009,08,04,01,05,19.70
2009,08,04,01,06,19.60
2009,08,04,01,07,19.50
2009,08,04,01,08,19.50
2009,08,04,01,09,19.40
2009,08,04,01,10,19.30
2009,08,04,01,11,19.30
2009,08,04,01,12,19.20
2009,08,04,01,13,19.20
2009,08,04,01,14,19.10
2009,08,04,01,15,19.00
2009,08,04,01,16,18.90
2009,08,04,01,17,18.90
2009,08,04,01,18,18.80
2009,08,04,01,19,18.70
2009,08,04,01,20,18.60
2009,08,04,01,21,18.60
2009,08,04,01,22,18.50
2009,08,04,01,23,18.40
2009,08,04,01,24,18.30
2009,08,04,01,25,18.20
2009,08,04,01,26,18.20
2009,08,04,01,27,18.20
2009,08,04,01,28,18.10
2009,08,04,01,29,18.10
2009,08,04,01,30,18.10
2009,08,04,01,31,18.10
2009,08,04,01,32,18.00
2009,08,04,01,33,18.00
2009,08,04,01,34,18.00
2009,08,04,01,35,17.90
2009,08,04,01,36,17.90
2009,08,04,01,37,17.90
2009,08,04,01,38,17.90
2009,08,04,01,39,17.80
2009,08,04,01,40,17.80
2009,08,04,01,41,17.70
2009,08,04,01,42,17.60
2009,08,04,01,43,17.60
2009,08,04,01,44,17.60
2009,08,04,01,45,17.50
2009,08,04,01,46,17.40
2009,08,04,01,47,17.40
2009,08,04,01,48,17.40
2009,08,04,01,49,17.30
2009,08,04,01,50,17.30
2009,08,04,01,51,17.20
2009,08,04,01,52,17.20
2009,08,04,01,53,17.10
2009,08,04,01,54,17.10
2009,08,04,01,55,17.00
2009,08,04,01,56,17.00
2009,08,04,01,57,17.00
2009,08,04,01,58,17.00
2009,08,04,01,59,17.00
2009,08,04,02,00,16.90
2009,08,04,02,01,16.90
2009,08,04,02,02,16.90
2009,08,04,02,03,16.90
2009,08,04,02,04,16.80
2009,08,04,02,05,16.80
2009,08,04,02,06,16.80
2009,08,04,02,07,16.80
2009,08,04,02,08,16.80
2009,08,04,02,09,16.70
2009,08,04,02,10,16.70
2009,08,04,02,11,16.70
2009,08,04,02,12,16.60
2009,08,04,02,13,16.60
2009,08,04,02,14,16.50
2009,08,04,02,15,16.50
2009,08,04,02,16,16.40
2009,08,04,02,17,16.40
2009,08,04,02,18,16.30
2009,08,04,02,19,16.30
2009,08,04,02,20,16.30
2009,08,04,02,21,16.20
2009,08,04,02,22,16.20
2009,08,04,02,23,16.10
2009,08,04,02,24,16.10
2009,08,04,02,25,16.10
2009,08,04,02,26,16.00
2009,08,04,02,27,16.00
2009,08,04,02,28,15.90
2009,08,04,02,29,15.90
2009,08,04,02,30,15.90
2009,08,04,02,31,15.80
2009,08,04,02,32,15.80
2009,08,04,02,33,15.80
2009,08,04,02,34,15.80
2009,08,04,02,35,15.80
2009,08,04,02,36,15.80
2009,08,04,02,37,15.80
2009,08,04,02,38,15.80
2009,08,04,02,39,15.80
2009,08,04,02,40,15.80
2009,08,04,02,41,15.80
2009,08,04,02,42,15.80
2009,08,04,02,43,15.70
2009,08,04,02,44,15.70
2009,08,04,02,45,15.70
2009,08,04,02,46,15.70
2009,08,04,02,47,15.60
2009,08,04,02,48,15.60
2009,08,04,02,49,15.60
2009,08,04,02,50,15.60
2009,08,04,02,51,15.60
2009,08,04,02,52,15.60
2009,08,04,02,53,15.60
2009,08,04,02,54,15.60
2009,08,04,02,55,15.60
2009,08,04,02,56,15.50
2009,08,04,02,57,15.50
2009,08,04,02,58,15.50
2009,08,04,02,59,15.50
2009,08,04,03,00,15.40
2009,08,04,03,01,15.40
2009,08,04,03,02,15.40
2009,08,04,03,03,15.40
2009,08,04,03,04,15.40
2009,08,04,03,05,15.40
2009,08,04,03,06,15.30
2009,08,04,03,07,15.30
2009,08,04,03,08,15.30
2009,08,04,03,09,15.30
2009,08,04,03,10,15.30
2009,08,04,03,11,15.30
2009,08,04,03,12,15.40
2009,08,04,03,13,15.40
2009,08,04,03,14,15.40
2009,08,04,03,15,15.40
2009,08,04,03,16,15.40
2009,08,04,03,17,15.40
2009,08,04,03,18,15.40
2009,08,04,03,19,15.30
2009,08,04,03,20,15.30
2009,08,04,03,21,15.30
2009,08,04,03,22,15.30
2009,08,04,03,23,15.20
2009,08,04,03,24,15.20
2009,08,04,03,25,15.20
2009,08,04,03,26,15.20
2009,08,04,03,27,15.20
2009,08,04,03,28,15.20
2009,08,04,03,29,15.20
2009,08,04,03,30,15.20
2009,08,04,03,31,15.30
2009,08,04,03,32,15.30
2009,08,04,03,33,15.30
2009,08,04,03,34,15.30
2009,08,04,03,35,15.30
2009,08,04,03,36,15.30
2009,08,04,03,37,15.30
2009,08,04,03,38,15.30
2009,08,04,03,39,15.30
2009,08,04,03,40,15.30
2009,08,04,03,41,15.20
2009,08,04,03,42,15.20
2009,08,04,03,43,15.20
2009,08,04,03,44,15.20
2009,08,04,03,45,15.10
2009,08,04,03,46,15.10
2009,08,04,03,47,15.10
2009,08,04,03,48,15.10
2009,08,04,03,49,15.00
2009,08,04,03,50,15.00
2009,08,04,03,51,15.00
2009,08,04,03,52,14.90
2009,08,04,03,53,14.90
2009,08,04,03,54,14.90
2009,08,04,03,55,14.80
2009,08,04,03,56,14.80
2009,08,04,03,57,14.80
2009,08,04,03,58,14.80
2009,08,04,03,59,14.80
2009,08,04,04,00,14.70
2009,08,04,04,01,14.70
2009,08,04,04,02,14.80
2009,08,04,04,03,14.70
2009,08,04,04,04,14.70
2009,08,04,04,05,14.70
2009,08,04,04,06,14.70
2009,08,04,04,07,14.80
2009,08,04,04,08,14.80
2009,08,04,04,09,14.80
2009,08,04,04,10,14.80
2009,08,04,04,11,14.80
2009,08,04,04,12,14.80
2009,08,04,04,13,14.80
2009,08,04,04,14,14.80
2009,08,04,04,15,14.80
2009,08,04,04,16,14.80
2009,08,04,04,17,14.80
2009,08,04,04,18,14.80
2009,08,04,04,19,14.80
2009,08,04,04,20,14.70
2009,08,04,04,21,14.70
2009,08,04,04,22,14.70
2009,08,04,04,23,14.70
2009,08,04,04,24,14.70
2009,08,04,04,25,14.70
2009,08,04,04,26,14.70
2009,08,04,04,27,14.60
2009,08,04,04,28,14.60
2009,08,04,04,29,14.60
2009,08,04,04,30,14.50
2009,08,04,04,31,14.50
2009,08,04,04,32,14.40
2009,08,04,04,33,14.40
2009,08,04,04,34,14.40
2009,08,04,04,35,14.30
2009,08,04,04,36,14.30
2009,08,04,04,37,14.30
2009,08,04,04,38,14.30
2009,08,04,04,39,14.30
2009,08,04,04,40,14.30
2009,08,04,04,41,14.30
2009,08,04,04,42,14.30
2009,08,04,04,43,14.20
2009,08,04,04,44,14.20
2009,08,04,04,45,14.20
2009,08,04,04,46,14.20
2009,08,04,04,47,14.10
2009,08,04,04,48,14.10
2009,08,04,04,49,14.10
2009,08,04,04,50,14.00
2009,08,04,04,51,14.00
2009,08,04,04,52,14.00
2009,08,04,04,53,13.90
2009,08,04,04,54,13.90
2009,08,04,04,55,13.90
2009,08,04,04,56,13.80
2009,08,04,04,57,13.80
2009,08,04,04,58,13.80
2009,08,04,04,59,13.80
2009,08,04,05,00,13.70
2009,08,04,05,01,13.70
2009,08,04,05,02,13.70
2009,08,04,05,03,13.70
2009,08,04,05,04,13.60
2009,08,04,05,05,13.70
2009,08,04,05,06,13.60
2009,08,04,05,07,13.60
2009,08,04,05,08,13.60
2009,08,04,05,09,13.60
2009,08,04,05,10,13.60
2009,08,04,05,11,13.60
2009,08,04,05,12,13.60
2009,08,04,05,13,13.60
2009,08,04,05,14,13.60
2009,08,04,05,15,13.60
2009,08,04,05,16,13.70
2009,08,04,05,17,13.70
2009,08,04,05,18,13.80
2009,08,04,05,19,13.80
2009,08,04,05,20,13.90
2009,08,04,05,21,13.90
2009,08,04,05,22,14.00
2009,08,04,05,23,14.00
2009,08,04,05,24,14.10
2009,08,04,05,25,14.10
2009,08,04,05,26,14.10
2009,08,04,05,27,14.10
2009,08,04,05,28,14.10
2009,08,04,05,29,14.10
2009,08,04,05,30,14.20
2009,08,04,05,31,14.20
2009,08,04,05,32,14.20
2009,08,04,05,33,14.20
2009,08,04,05,34,14.20
2009,08,04,05,35,14.20
2009,08,04,05,36,14.20
2009,08,04,05,37,14.20
2009,08,04,05,38,14.20
2009,08,04,05,39,14.20
2009,08,04,05,40,14.30
2009,08,04,05,41,14.30
2009,08,04,05,42,14.30
2009,08,04,05,43,14.30
2009,08,04,05,44,14.30
2009,08,04,05,45,14.30
2009,08,04,05,46,14.30
2009,08,04,05,47,14.30
2009,08,04,05,48,14.30
2009,08,04,05,49,14.30
2009,08,04,05,50,14.30
2009,08,04,05,51,14.30
2009,08,04,05,52,14.30
2009,08,04,05,53,14.30
2009,08,04,05,54,14.30
2009,08,04,05,55,14.20
2009,08,04,05,56,14.20
2009,08,04,05,57,14.20
2009,08,04,05,58,14.20
2009,08,04,05,59,14.20
2009,08,04,06,00,14.20
2009,08,04,06,01,14.30
2009,08,04,06,02,14.30
2009,08,04,06,03,14.30
2009,08,04,06,04,14.30
2009,08,04,06,05,14.30
2009,08,04,06,06,14.30
2009,08,04,06,07,14.30
2009,08,04,06,08,14.40
2009,08,04,06,09,14.40
2009,08,04,06,10,14.50
2009,08,04,06,11,14.50
2009,08,04,06,12,14.60
2009,08,04,06,13,14.60
2009,08,04,06,14,14.70
2009,08,04,06,15,14.80
2009,08,04,06,16,14.90
2009,08,04,06,17,14.90
2009,08,04,06,18,15.00
2009,08,04,06,19,15.00
2009,08,04,06,20,15.10
2009,08,04,06,21,15.10
2009,08,04,06,22,15.10
2009,08,04,06,23,15.10
2009,08,04,06,24,15.10
2009,08,04,06,25,15.10
2009,08,04,06,26,15.10
2009,08,04,06,27,15.10
2009,08,04,06,28,15.10
2009,08,04,06,29,15.20
2009,08,04,06,30,15.20
2009,08,04,06,31,15.20
2009,08,04,06,32,15.20
2009,08,04,06,33,15.20
2009,08,04,06,34,15.20
2009,08,04,06,35,15.10
2009,08,04,06,36,15.20
2009,08,04,06,37,15.20
2009,08,04,06,38,15.20
2009,08,04,06,39,15.20
2009,08,04,06,40,15.20
2009,08,04,06,41,15.20
2009,08,04,06,42,15.30
2009,08,04,06,43,15.30
2009,08,04,06,44,15.30
2009,08,04,06,45,15.30
2009,08,04,06,46,15.30
2009,08,04,06,47,15.40
2009,08,04,06,48,15.40
2009,08,04,06,49,15.40
2009,08,04,06,50,15.40
2009,08,04,06,51,15.40
2009,08,04,06,52,15.40
2009,08,04,06,53,15.50
2009,08,04,06,54,15.50
2009,08,04,06,55,15.50
2009,08,04,06,56,15.60
2009,08,04,06,57,15.60
2009,08,04,06,58,15.60
2009,08,04,06,59,15.60
2009,08,04,07,00,15.60
2009,08,04,07,01,15.60
2009,08,04,07,02,15.60
2009,08,04,07,03,15.60
2009,08,04,07,04,15.60
2009,08,04,07,05,15.60
2009,08,04,07,06,15.60
2009,08,04,07,07,15.60
2009,08,04,07,08,15.60
2009,08,04,07,09,15.60
2009,08,04,07,10,15.60
2009,08,04,07,11,15.60
2009,08,04,07,12,15.60
2009,08,04,07,13,15.60
2009,08,04,07,14,15.60
2009,08,04,07,15,15.70
2009,08,04,07,16,15.70
2009,08,04,07,17,15.70
2009,08,04,07,18,15.70
2009,08,04,07,19,15.70
2009,08,04,07,20,15.70
2009,08,04,07,21,15.80
2009,08,04,07,22,15.80
2009,08,04,07,23,15.80
2009,08,04,07,24,15.80
2009,08,04,07,25,15.90
2009,08,04,07,26,15.90
2009,08,04,07,27,16.00
2009,08,04,07,28,16.00
2009,08,04,07,29,16.00
2009,08,04,07,30,16.10
2009,08,04,07,31,16.10
2009,08,04,07,32,16.20
2009,08,04,07,33,16.20
2009,08,04,07,34,16.20
2009,08,04,07,35,16.20
2009,08,04,07,36,16.30
2009,08,04,07,37,16.30
2009,08,04,07,38,16.30
2009,08,04,07,39,16.40
2009,08,04,07,40,16.40
2009,08,04,07,41,16.50
2009,08,04,07,42,16.60
2009,08,04,07,43,16.60
2009,08,04,07,44,16.70
2009,08,04,07,45,16.70
2009,08,04,07,46,16.70
2009,08,04,07,47,16.80
2009,08,04,07,48,16.80
2009,08,04,07,49,16.90
2009,08,04,07,50,16.90
2009,08,04,07,51,16.90
2009,08,04,07,52,17.00
2009,08,04,07,53,17.00
2009,08,04,07,54,17.10
2009,08,04,07,55,17.10
2009,08,04,07,56,17.20
2009,08,04,07,57,17.20
2009,08,04,07,58,17.30
2009,08,04,07,59,17.30
2009,08,04,08,00,17.30
2009,08,04,08,01,17.40
2009,08,04,08,02,17.40
2009,08,04,08,03,17.50
2009,08,04,08,04,17.50
2009,08,04,08,05,17.60
2009,08,04,08,06,17.60
2009,08,04,08,07,17.70
2009,08,04,08,08,17.70
2009,08,04,08,09,17.80
2009,08,04,08,10,17.80
2009,08,04,08,11,17.90
2009,08,04,08,12,17.90
2009,08,04,08,13,18.00
2009,08,04,08,14,18.00
2009,08,04,08,15,18.10
2009,08,04,08,16,18.10
2009,08,04,08,17,18.20
2009,08,04,08,18,18.20
2009,08,04,08,19,18.20
2009,08,04,08,20,18.30
2009,08,04,08,21,18.30
2009,08,04,08,22,18.30
2009,08,04,08,23,18.30
2009,08,04,08,24,18.30
2009,08,04,08,25,18.40
2009,08,04,08,26,18.40
2009,08,04,08,27,18.40
2009,08,04,08,28,18.40
2009,08,04,08,29,18.40
2009,08,04,08,30,18.50
2009,08,04,08,31,18.50
2009,08,04,08,32,18.60
2009,08,04,08,33,18.60
2009,08,04,08,34,18.60
2009,08,04,08,35,18.70
2009,08,04,08,36,18.70
2009,08,04,08,37,18.70
2009,08,04,08,38,18.80
2009,08,04,08,39,18.80
2009,08,04,08,40,18.80
2009,08,04,08,41,18.90
2009,08,04,08,42,18.90
2009,08,04,08,43,19.00
2009,08,04,08,44,19.00
2009,08,04,08,45,19.10
2009,08,04,08,46,19.20
2009,08,04,08,47,19.20
2009,08,04,08,48,19.30
2009,08,04,08,49,19.40
2009,08,04,08,50,19.50
2009,08,04,08,51,19.60
2009,08,04,08,52,19.70
2009,08,04,08,53,19.80
2009,08,04,08,54,19.80
2009,08,04,08,55,19.90
2009,08,04,08,56,20.00
2009,08,04,08,57,20.00
2009,08,04,08,58,20.10
2009,08,04,08,59,20.20
2009,08,04,09,00,20.20
2009,08,04,09,01,20.30
2009,08,04,09,02,20.40
2009,08,04,09,03,20.40
2009,08,04,09,04,20.50
2009,08,04,09,05,20.50
2009,08,04,09,06,20.60
2009,08,04,09,07,20.60
2009,08,04,09,08,20.70
2009,08,04,09,09,20.70
2009,08,04,09,10,20.80
2009,08,04,09,11,20.90
2009,08,04,09,12,20.90
2009,08,04,09,13,20.90
2009,08,04,09,14,21.00
2009,08,04,09,15,21.00
2009,08,04,09,16,21.10
2009,08,04,09,17,21.20
2009,08,04,09,18,21.20
2009,08,04,09,19,21.30
2009,08,04,09,20,21.40
2009,08,04,09,21,21.30
2009,08,04,09,22,21.30
2009,08,04,09,23,21.30
2009,08,04,09,24,21.30
2009,08,04,09,25,21.30
2009,08,04,09,26,21.30
2009,08,04,09,27,21.30
2009,08,04,09,28,21.30
2009,08,04,09,29,21.30
2009,08,04,09,30,21.20
2009,08,04,09,31,21.20
2009,08,04,09,32,21.20
2009,08,04,09,33,21.10
2009,08,04,09,34,21.00
2009,08,04,09,35,20.90
2009,08,04,09,36,20.90
2009,08,04,09,37,20.80
2009,08,04,09,38,20.80
2009,08,04,09,39,20.80
2009,08,04,09,40,20.80
2009,08,04,09,41,20.80
2009,08,04,09,42,20.80
2009,08,04,09,43,20.80
2009,08,04,09,44,20.70
2009,08,04,09,45,20.60
2009,08,04,09,46,20.50
2009,08,04,09,47,20.50
2009,08,04,09,48,20.40
2009,08,04,09,49,20.40
2009,08,04,09,50,20.40
2009,08,04,09,51,20.40
2009,08,04,09,52,20.30
2009,08,04,09,53,20.30
2009,08,04,09,54,20.30
2009,08,04,09,55,20.30
2009,08,04,09,56,20.30
2009,08,04,09,57,20.30
2009,08,04,09,58,20.30
2009,08,04,09,59,20.30
2009,08,04,10,00,20.30
2009,08,04,10,01,20.30
2009,08,04,10,02,20.30
2009,08,04,10,03,20.40
2009,08,04,10,04,20.40
2009,08,04,10,05,20.40
2009,08,04,10,06,20.40
2009,08,04,10,07,20.40
2009,08,04,10,08,20.40
2009,08,04,10,09,20.40
2009,08,04,10,10,20.40
2009,08,04,10,11,20.40
2009,08,04,10,12,20.40
2009,08,04,10,13,20.50
2009,08,04,10,14,20.50
2009,08,04,10,15,20.50
2009,08,04,10,16,20.50
2009,08,04,10,17,20.50
2009,08,04,10,18,20.40
2009,08,04,10,19,20.50
2009,08,04,10,20,20.50
2009,08,04,10,21,20.50
2009,08,04,10,22,20.60
2009,08,04,10,23,20.60
2009,08,04,10,24,20.70
2009,08,04,10,25,20.70
2009,08,04,10,26,20.70
2009,08,04,10,27,20.80
2009,08,04,10,28,20.80
2009,08,04,10,29,20.80
2009,08,04,10,30,20.90
2009,08,04,10,31,20.90
2009,08,04,10,32,20.90
2009,08,04,10,33,20.90
2009,08,04,10,34,20.90
2009,08,04,10,35,20.90
2009,08,04,10,36,20.90
2009,08,04,10,37,20.90
2009,08,04,10,38,20.90
2009,08,04,10,39,20.90
2009,08,04,10,40,20.90
2009,08,04,10,41,20.90
2009,08,04,10,42,20.90
2009,08,04,10,43,20.90
2009,08,04,10,44,20.90
2009,08,04,10,45,20.90
2009,08,04,10,46,21.00
2009,08,04,10,47,21.00
2009,08,04,10,48,21.10
2009,08,04,10,49,21.10
2009,08,04,10,50,21.10
2009,08,04,10,51,21.10
2009,08,04,10,52,21.10
2009,08,04,10,53,21.10
2009,08,04,10,54,21.20
2009,08,04,10,55,21.10
2009,08,04,10,56,21.10
2009,08,04,10,57,21.20
2009,08,04,10,58,21.20
2009,08,04,10,59,21.20
2009,08,04,11,00,21.30
2009,08,04,11,01,21.30
2009,08,04,11,02,21.30
2009,08,04,11,03,21.20
2009,08,04,11,04,21.20
2009,08,04,11,05,21.30
2009,08,04,11,06,21.30
2009,08,04,11,07,21.30
2009,08,04,11,08,21.30
2009,08,04,11,09,21.30
2009,08,04,11,10,21.30
2009,08,04,11,11,21.30
2009,08,04,11,12,21.30
2009,08,04,11,13,21.20
2009,08,04,11,14,21.10
2009,08,04,11,15,21.10
2009,08,04,11,16,21.10
2009,08,04,11,17,21.10
2009,08,04,11,18,21.10
2009,08,04,11,19,21.20
2009,08,04,11,20,21.20
2009,08,04,11,21,21.20
2009,08,04,11,22,21.30
2009,08,04,11,23,21.30
2009,08,04,11,24,21.30
2009,08,04,11,25,21.40
2009,08,04,11,26,21.30
2009,08,04,11,27,21.30
2009,08,04,11,28,21.30
2009,08,04,11,29,21.20
2009,08,04,11,30,21.20
2009,08,04,11,31,21.20
2009,08,04,11,32,21.20
2009,08,04,11,33,21.20
2009,08,04,11,34,21.10
2009,08,04,11,35,21.10
2009,08,04,11,36,21.00
2009,08,04,11,37,21.00
2009,08,04,11,38,20.90
2009,08,04,11,39,20.80
2009,08,04,11,40,20.80
2009,08,04,11,41,20.80
2009,08,04,11,42,20.80
2009,08,04,11,43,20.90
2009,08,04,11,44,20.90
2009,08,04,11,45,21.00
2009,08,04,11,46,21.00
2009,08,04,11,47,21.00
2009,08,04,11,48,21.00
2009,08,04,11,49,20.90
2009,08,04,11,50,20.90
2009,08,04,11,51,20.90
2009,08,04,11,52,21.00
2009,08,04,11,53,21.00
2009,08,04,11,54,21.00
2009,08,04,11,55,21.00
2009,08,04,11,56,20.90
2009,08,04,11,57,21.00
2009,08,04,11,58,21.10
2009,08,04,11,59,21.20
2009,08,04,12,00,21.20
2009,08,04,12,01,21.30
2009,08,04,12,02,21.20
2009,08,04,12,03,21.20
2009,08,04,12,04,21.10
2009,08,04,12,05,21.10
2009,08,04,12,06,21.10
2009,08,04,12,07,21.10
2009,08,04,12,08,21.10
2009,08,04,12,09,21.20
2009,08,04,12,10,21.30
2009,08,04,12,11,21.30
2009,08,04,12,12,21.30
2009,08,04,12,13,21.30
2009,08,04,12,14,21.30
2009,08,04,12,15,21.20
2009,08,04,12,16,21.30
2009,08,04,12,17,21.30
2009,08,04,12,18,21.30
2009,08,04,12,19,21.40
2009,08,04,12,20,21.40
2009,08,04,12,21,21.40
2009,08,04,12,22,21.40
2009,08,04,12,23,21.50
2009,08,04,12,24,21.40
2009,08,04,12,25,21.40
2009,08,04,12,26,21.40
2009,08,04,12,27,21.40
2009,08,04,12,28,21.50
2009,08,04,12,29,21.50
2009,08,04,12,30,21.60
2009,08,04,12,31,21.60
2009,08,04,12,32,21.60
2009,08,04,12,33,21.60
2009,08,04,12,34,21.60
2009,08,04,12,35,21.60
2009,08,04,12,36,21.60
2009,08,04,12,37,21.60
2009,08,04,12,38,21.60
2009,08,04,12,39,21.60
2009,08,04,12,40,21.60
2009,08,04,12,41,21.60
2009,08,04,12,42,21.60
2009,08,04,12,43,21.60
2009,08,04,12,44,21.60
2009,08,04,12,45,21.70
2009,08,04,12,46,21.70
2009,08,04,12,47,21.70
2009,08,04,12,48,21.80
2009,08,04,12,49,21.80
2009,08,04,12,50,21.80
2009,08,04,12,51,21.80
2009,08,04,12,52,21.70
2009,08,04,12,53,21.70
2009,08,04,12,54,21.70
2009,08,04,12,55,21.70
2009,08,04,12,56,21.70
2009,08,04,12,57,21.60
2009,08,04,12,58,21.60
2009,08,04,12,59,21.50
2009,08,04,13,00,21.50
2009,08,04,13,01,21.50
2009,08,04,13,02,21.50
2009,08,04,13,03,21.50
2009,08,04,13,04,21.50
2009,08,04,13,05,21.50
2009,08,04,13,06,21.50
2009,08,04,13,07,21.60
2009,08,04,13,08,21.60
2009,08,04,13,09,21.60
2009,08,04,13,10,21.70
2009,08,04,13,11,21.70
2009,08,04,13,12,21.70
2009,08,04,13,13,21.70
2009,08,04,13,14,21.70
2009,08,04,13,15,21.70
2009,08,04,13,16,21.70
2009,08,04,13,17,21.70
2009,08,04,13,18,21.70
2009,08,04,13,19,21.70
2009,08,04,13,20,21.80
2009,08,04,13,21,21.80
2009,08,04,13,22,21.90
2009,08,04,13,23,22.00
2009,08,04,13,24,22.00
2009,08,04,13,25,22.00
2009,08,04,13,26,22.10
2009,08,04,13,27,22.10
2009,08,04,13,28,22.10
2009,08,04,13,29,22.10
2009,08,04,13,30,22.20
2009,08,04,13,31,22.20
2009,08,04,13,32,22.20
2009,08,04,13,33,22.20
2009,08,04,13,34,22.20
2009,08,04,13,35,22.30
2009,08,04,13,36,22.30
2009,08,04,13,37,22.30
2009,08,04,13,38,22.30
2009,08,04,13,39,22.30
2009,08,04,13,40,22.20
2009,08,04,13,41,22.20
2009,08,04,13,42,22.20
2009,08,04,13,43,22.20
2009,08,04,13,44,22.20
2009,08,04,13,45,22.20
2009,08,04,13,46,22.10
2009,08,04,13,47,22.10
2009,08,04,13,48,22.10
2009,08,04,13,49,22.10
2009,08,04,13,50,22.00
2009,08,04,13,51,22.00
2009,08,04,13,52,21.90
2009,08,04,13,53,21.90
2009,08,04,13,54,21.90
2009,08,04,13,55,21.90
2009,08,04,13,56,22.00
2009,08,04,13,57,22.10
2009,08,04,13,58,22.10
2009,08,04,13,59,22.20
2009,08,04,14,00,22.20
2009,08,04,14,01,22.20
2009,08,04,14,02,22.30
2009,08,04,14,03,22.30
2009,08,04,14,04,22.30
2009,08,04,14,05,22.30
2009,08,04,14,06,22.20
2009,08,04,14,07,22.20
2009,08,04,14,08,22.20
2009,08,04,14,09,22.30
2009,08,04,14,10,22.30
2009,08,04,14,11,22.30
2009,08,04,14,12,22.40
2009,08,04,14,13,22.40
2009,08,04,14,14,22.50
2009,08,04,14,15,22.50
2009,08,04,14,16,22.50
2009,08,04,14,17,22.50
2009,08,04,14,18,22.40
2009,08,04,14,19,22.40
2009,08,04,14,20,22.30
2009,08,04,14,21,22.20
2009,08,04,14,22,22.20
2009,08,04,14,23,22.20
2009,08,04,14,24,22.10
2009,08,04,14,25,22.00
2009,08,04,14,26,22.00
2009,08,04,14,27,21.90
2009,08,04,14,28,21.90
2009,08,04,14,29,21.90
2009,08,04,14,30,21.90
2009,08,04,14,31,21.80
2009,08,04,14,32,21.80
2009,08,04,14,33,21.80
2009,08,04,14,34,21.80
2009,08,04,14,35,21.70
2009,08,04,14,36,21.70
2009,08,04,14,37,21.70
2009,08,04,14,38,21.70
2009,08,04,14,39,21.70
2009,08,04,14,40,21.70
2009,08,04,14,41,21.70
2009,08,04,14,42,21.70
2009,08,04,14,43,21.70
2009,08,04,14,44,21.80
2009,08,04,14,45,21.80
2009,08,04,14,46,21.80
2009,08,04,14,47,21.90
2009,08,04,14,48,21.90
2009,08,04,14,49,21.90
2009,08,04,14,50,21.90
2009,08,04,14,51,21.90
2009,08,04,14,52,21.90
2009,08,04,14,53,21.80
2009,08,04,14,54,21.80
2009,08,04,14,55,21.80
2009,08,04,14,56,21.80
2009,08,04,14,57,21.90
2009,08,04,14,58,21.90
2009,08,04,14,59,21.90
2009,08,04,15,00,21.90
2009,08,04,15,01,22.00
2009,08,04,15,02,22.00
2009,08,04,15,03,22.10
2009,08,04,15,04,22.20
2009,08,04,15,05,22.20
2009,08,04,15,06,22.30
2009,08,04,15,07,22.40
2009,08,04,15,08,22.40
2009,08,04,15,09,22.40
2009,08,04,15,10,22.40
2009,08,04,15,11,22.40
2009,08,04,15,12,22.40
2009,08,04,15,13,22.40
2009,08,04,15,14,22.40
2009,08,04,15,15,22.40
2009,08,04,15,16,22.40
2009,08,04,15,17,22.40
2009,08,04,15,18,22.40
2009,08,04,15,19,22.40
2009,08,04,15,20,22.40
2009,08,04,15,21,22.40
2009,08,04,15,22,22.40
2009,08,04,15,23,22.40
2009,08,04,15,24,22.40
2009,08,04,15,25,22.40
2009,08,04,15,26,22.40
2009,08,04,15,27,22.50
2009,08,04,15,28,22.60
2009,08,04,15,29,22.60
2009,08,04,15,30,22.70
2009,08,04,15,31,22.70
2009,08,04,15,32,22.80
2009,08,04,15,33,22.80
2009,08,04,15,34,22.70
2009,08,04,15,35,22.70
2009,08,04,15,36,22.70
2009,08,04,15,37,22.70
2009,08,04,15,38,22.80
2009,08,04,15,39,22.80
2009,08,04,15,40,22.80
2009,08,04,15,41,22.70
2009,08,04,15,42,22.70
2009,08,04,15,43,22.60
2009,08,04,15,44,22.60
2009,08,04,15,45,22.50
2009,08,04,15,46,22.40
2009,08,04,15,47,22.40
2009,08,04,15,48,22.40
2009,08,04,15,49,22.30
2009,08,04,15,50,22.20
2009,08,04,15,51,22.20
2009,08,04,15,52,22.20
2009,08,04,15,53,22.20
2009,08,04,15,54,22.10
2009,08,04,15,55,22.10
2009,08,04,15,56,22.00
2009,08,04,15,57,22.00
2009,08,04,15,58,22.00
2009,08,04,15,59,21.90
2009,08,04,16,00,21.90
2009,08,04,16,01,21.90
2009,08,04,16,02,21.90
2009,08,04,16,03,21.80
2009,08,04,16,04,21.70
2009,08,04,16,05,21.60
2009,08,04,16,06,21.60
2009,08,04,16,07,21.50
2009,08,04,16,08,21.50
2009,08,04,16,09,21.40
2009,08,04,16,10,21.40
2009,08,04,16,11,21.30
2009,08,04,16,12,21.30
2009,08,04,16,13,21.30
2009,08,04,16,14,21.30
2009,08,04,16,15,21.30
2009,08,04,16,16,21.20
2009,08,04,16,17,21.20
2009,08,04,16,18,21.20
2009,08,04,16,19,21.20
2009,08,04,16,20,21.20
2009,08,04,16,21,21.20
2009,08,04,16,22,21.20
2009,08,04,16,23,21.20
2009,08,04,16,24,21.20
2009,08,04,16,25,21.20
2009,08,04,16,26,21.20
2009,08,04,16,27,21.10
2009,08,04,16,28,21.10
2009,08,04,16,29,21.10
2009,08,04,16,30,21.10
2009,08,04,16,31,21.10
2009,08,04,16,32,21.20
2009,08,04,16,33,21.20
2009,08,04,16,34,21.30
2009,08,04,16,35,21.30
2009,08,04,16,36,21.30
2009,08,04,16,37,21.40
2009,08,04,16,38,21.50
2009,08,04,16,39,21.50
2009,08,04,16,40,21.70
2009,08,04,16,41,21.80
2009,08,04,16,42,21.90
2009,08,04,16,43,21.90
2009,08,04,16,44,22.00
2009,08,04,16,45,22.10
2009,08,04,16,46,22.10
2009,08,04,16,47,22.20
2009,08,04,16,48,22.20
2009,08,04,16,49,22.30
2009,08,04,16,50,22.30
2009,08,04,16,51,22.30
2009,08,04,16,52,22.40
2009,08,04,16,53,22.40
2009,08,04,16,54,22.40
2009,08,04,16,55,22.50
2009,08,04,16,56,22.50
2009,08,04,16,57,22.60
2009,08,04,16,58,22.60
2009,08,04,16,59,22.70
2009,08,04,17,00,22.70
2009,08,04,17,01,22.70
2009,08,04,17,02,22.60
2009,08,04,17,03,22.70
2009,08,04,17,04,22.70
2009,08,04,17,05,22.70
2009,08,04,17,06,22.80
2009,08,04,17,07,22.80
2009,08,04,17,08,22.90
2009,08,04,17,09,22.90
2009,08,04,17,10,23.00
2009,08,04,17,11,23.00
2009,08,04,17,12,23.00
2009,08,04,17,13,23.00
2009,08,04,17,14,23.00
2009,08,04,17,15,22.90
2009,08,04,17,16,22.80
2009,08,04,17,17,22.80
2009,08,04,17,18,22.80
2009,08,04,17,19,22.80